"read_dt","SO2 (ppb)","flags","PMT voltage (V)","lamp voltage (V)","lamp intensity (Hz)","internal temp (C)","react chamber temp (C)","sample flow (l/min)","pres (mmHg)","SO2 bkg (ppb)","SO2 coefficient"
2016-04-03 00:00:00,1691E-3,5C000400,-0724,0835,12219,022.8,045.3,0.264,755.6,01.16,0.508
2016-04-03 00:01:00,1799E-3,5C000400,-0724,0835,12120,022.8,045.3,0.264,755.5,01.16,0.508
2016-04-03 00:02:00,1697E-3,5C000400,-0724,0834,12261,022.8,045.3,0.264,755.5,01.16,0.508
2016-04-03 00:03:00,1860E-3,5C000400,-0724,0835,12213,022.8,045.3,0.264,755.5,01.16,0.508
2016-04-03 00:04:00,1668E-3,5C000400,-0724,0834,12054,022.8,045.3,0.264,755.5,01.16,0.508
2016-04-03 00:05:00,1731E-3,5C000400,-0724,0834,12243,022.8,045.3,0.264,755.5,01.16,0.508
2016-04-03 00:06:00,1754E-3,5C000400,-0724,0835,12116,022.8,045.3,0.264,755.5,01.16,0.508
2016-04-03 00:07:00,1759E-3,5C000400,-0724,0835,12248,022.8,045.3,0.264,755.4,01.16,0.508
2016-04-03 00:08:00,1820E-3,5C000400,-0724,0834,12225,022.8,045.3,0.264,755.4,01.16,0.508
2016-04-03 00:09:00,1753E-3,5C000400,-0724,0835,12115,022.8,045.3,0.264,755.4,01.16,0.508
2016-04-03 00:10:00,1731E-3,5C000400,-0724,0835,12107,022.8,045.3,0.264,755.4,01.16,0.508
2016-04-03 00:11:00,1793E-3,5C000400,-0724,0835,12217,022.8,045.3,0.264,755.4,01.16,0.508
2016-04-03 00:12:00,1724E-3,5C000400,-0724,0834,12189,022.8,045.3,0.264,755.4,01.16,0.508
2016-04-03 00:13:00,1728E-3,5C000400,-0724,0834,12009,022.8,045.3,0.264,755.4,01.16,0.508
2016-04-03 00:14:00,1786E-3,5C000400,-0724,0835,12103,022.8,045.3,0.264,755.4,01.16,0.508
2016-04-03 00:15:00,1700E-3,5C000400,-0724,0834,12180,022.8,045.3,0.264,755.4,01.16,0.508
2016-04-03 00:16:00,1726E-3,5C000400,-0724,0834,12243,022.8,045.3,0.264,755.3,01.16,0.508
2016-04-03 00:17:00,1793E-3,5C000400,-0724,0835,12115,022.9,045.3,0.264,755.3,01.16,0.508
2016-04-03 00:18:00,1837E-3,5C000400,-0724,0835,12104,022.9,045.3,0.264,755.3,01.16,0.508
2016-04-03 00:19:00,1708E-3,5C000400,-0724,0834,12175,022.8,045.3,0.264,755.4,01.16,0.508
2016-04-03 00:20:00,1890E-3,5C000400,-0724,0834,12238,022.9,045.3,0.264,755.3,01.16,0.508
2016-04-03 00:21:00,1711E-3,5C000400,-0724,0834,12080,022.8,045.3,0.264,755.3,01.16,0.508
2016-04-03 00:22:00,1781E-3,5C000400,-0724,0835,12048,022.9,045.3,0.264,755.3,01.16,0.508
2016-04-03 00:23:00,1818E-3,5C000400,-0724,0835,12081,022.9,045.3,0.264,755.3,01.16,0.508
2016-04-03 00:24:00,1650E-3,5C000400,-0724,0834,12152,022.9,045.3,0.264,755.3,01.16,0.508
2016-04-03 00:25:00,1784E-3,5C000400,-0724,0834,11141,022.9,045.3,0.264,755.3,01.16,0.508
2016-04-03 00:26:00,1814E-3,5C000400,-0724,0835,12121,022.9,045.3,0.264,755.3,01.16,0.508
2016-04-03 00:27:00,1819E-3,5C000400,-0724,0835,12146,022.9,045.3,0.264,755.3,01.16,0.508
2016-04-03 00:28:00,1818E-3,5C000400,-0724,0835,12081,022.9,045.3,0.264,755.3,01.16,0.508
2016-04-03 00:29:00,1703E-3,5C000400,-0724,0834,12087,022.9,045.3,0.264,755.3,01.16,0.508
2016-04-03 00:30:00,1689E-3,5C000400,-0724,0834,12196,022.9,045.3,0.264,755.3,01.16,0.508
2016-04-03 00:31:00,1860E-3,5C000400,-0724,0834,12229,022.9,045.3,0.264,755.3,01.16,0.508
2016-04-03 00:32:00,1752E-3,5C000400,-0724,0835,12233,022.9,045.3,0.264,755.3,01.16,0.508
2016-04-03 00:33:00,1738E-3,5C000400,-0724,0834,12137,022.9,045.3,0.264,755.3,01.16,0.508
2016-04-03 00:34:00,1800E-3,5C000400,-0724,0833,12103,023.0,045.3,0.264,755.3,01.16,0.508
2016-04-03 00:35:00,1746E-3,5C000400,-0724,0834,12122,022.9,045.3,0.264,755.3,01.16,0.508
2016-04-03 00:36:00,1772E-3,5C000400,-0724,0834,12101,023.0,045.3,0.264,755.3,01.16,0.508
2016-04-03 00:37:00,1732E-3,5C000400,-0724,0835,12064,022.9,045.3,0.264,755.3,01.16,0.508
2016-04-03 00:38:00,1830E-3,5C000400,-0724,0835,12357,022.9,045.3,0.264,755.3,01.16,0.508
2016-04-03 00:39:00,1637E-3,5C000400,-0724,0835,11963,022.9,045.3,0.264,755.2,01.16,0.508
2016-04-03 00:40:00,1667E-3,5C000400,-0724,0834,12212,022.9,045.3,0.264,755.2,01.16,0.508
2016-04-03 00:41:00,1757E-3,5C000400,-0724,0835,12253,023.0,045.3,0.264,755.2,01.16,0.508
2016-04-03 00:42:00,1825E-3,5C000400,-0724,0835,12090,023.0,045.3,0.264,755.2,01.16,0.508
2016-04-03 00:43:00,1807E-3,5C000400,-0724,0835,12120,023.0,045.3,0.264,755.2,01.16,0.508
2016-04-03 00:44:00,1855E-3,5C000400,-0724,0835,12184,023.0,045.3,0.264,755.2,01.16,0.508
2016-04-03 00:45:00,1901E-3,5C000400,-0724,0835,12139,023.0,045.3,0.264,755.2,01.16,0.508
2016-04-03 00:46:00,1789E-3,5C000400,-0724,0834,12188,023.0,045.3,0.264,755.2,01.16,0.508
2016-04-03 00:47:00,1794E-3,5C000400,-0724,0834,12138,023.0,045.3,0.264,755.2,01.16,0.508
2016-04-03 00:48:00,1627E-3,5C000400,-0724,0834,12193,023.0,045.3,0.263,755.2,01.16,0.508
2016-04-03 00:49:00,1852E-3,5C000400,-0724,0834,12158,023.0,045.3,0.264,755.2,01.16,0.508
2016-04-03 00:50:00,1758E-3,5C000400,-0724,0835,12220,023.0,045.3,0.264,755.2,01.16,0.508
2016-04-03 00:51:00,1791E-3,5C000400,-0724,0834,12048,023.0,045.3,0.264,755.2,01.16,0.508
2016-04-03 00:52:00,1770E-3,5C000400,-0724,0834,12107,023.0,045.3,0.264,755.1,01.16,0.508
2016-04-03 00:53:00,1839E-3,5C000400,-0724,0834,12130,023.0,045.3,0.264,755.1,01.16,0.508
2016-04-03 00:54:00,1848E-3,5C000400,-0724,0834,12193,023.0,045.3,0.264,755.1,01.16,0.508
2016-04-03 00:55:00,1804E-3,5C000400,-0724,0835,12142,023.0,045.3,0.264,755.1,01.16,0.508
2016-04-03 00:56:00,1763E-3,5C000400,-0724,0835,12076,023.0,045.3,0.264,755.1,01.16,0.508
2016-04-03 00:57:00,1781E-3,5C000400,-0724,0834,12050,023.0,045.3,0.264,755.1,01.16,0.508
2016-04-03 00:58:00,1869E-3,5C000400,-0724,0834,12196,023.1,045.3,0.264,755.1,01.16,0.508
2016-04-03 00:59:00,1779E-3,5C000400,-0724,0835,12162,023.1,045.3,0.264,755.1,01.16,0.508
2016-04-03 01:00:00,1812E-3,5C000400,-0724,0834,12106,023.1,045.3,0.264,755.1,01.16,0.508
2016-04-03 01:01:00,1743E-3,5C000400,-0724,0835,12201,023.1,045.3,0.264,755.1,01.16,0.508
2016-04-03 01:02:00,1844E-3,5C000400,-0724,0834,12232,023.1,045.3,0.264,755.1,01.16,0.508
2016-04-03 01:03:00,1646E-3,5C000400,-0724,0835,12177,023.1,045.3,0.264,755.1,01.16,0.508
2016-04-03 01:04:00,1760E-3,5C000400,-0724,0834,12149,023.1,045.3,0.264,755.0,01.17,0.508
2016-04-03 01:05:00,1818E-3,5C000400,-0724,0835,12061,023.1,045.3,0.263,755.0,01.17,0.508
2016-04-03 01:06:00,1812E-3,5C000400,-0724,0835,12163,023.1,045.3,0.264,755.0,01.17,0.508
2016-04-03 01:07:00,1800E-3,5C000400,-0724,0835,12097,023.1,045.3,0.264,755.0,01.17,0.508
2016-04-03 01:08:00,1691E-3,5C000400,-0724,0835,12226,023.1,045.3,0.264,755.0,01.17,0.508
2016-04-03 01:09:00,1904E-3,5C000400,-0724,0834,12009,023.1,045.3,0.264,755.0,01.17,0.508
2016-04-03 01:10:00,1644E-3,5C000400,-0724,0835,12169,023.1,045.3,0.264,755.0,01.17,0.508
2016-04-03 01:11:00,1781E-3,5C000400,-0724,0835,12271,023.1,045.3,0.264,755.0,01.17,0.508
2016-04-03 01:12:00,1815E-3,5C000400,-0724,0835,12209,023.1,045.3,0.263,755.0,01.17,0.508
2016-04-03 01:13:00,1794E-3,5C000400,-0724,0834,12146,023.2,045.3,0.264,755.0,01.17,0.508
2016-04-03 01:14:00,1840E-3,5C000400,-0724,0835,12231,023.1,045.3,0.264,755.0,01.17,0.508
2016-04-03 01:15:00,1790E-3,5C000400,-0724,0835,12160,023.2,045.3,0.264,755.0,01.17,0.508
2016-04-03 01:16:00,1743E-3,5C000400,-0724,0835,12261,023.2,045.3,0.264,754.9,01.17,0.508
2016-04-03 01:17:00,1748E-3,5C000400,-0724,0835,12210,023.2,045.3,0.264,754.9,01.17,0.508
2016-04-03 01:18:00,1679E-3,5C000400,-0724,0834,12010,023.2,045.3,0.264,754.9,01.17,0.508
2016-04-03 01:19:00,1752E-3,5C000400,-0724,0834,12145,023.2,045.3,0.264,755.0,01.17,0.508
2016-04-03 01:20:00,1872E-3,5C000400,-0724,0834,12135,023.2,045.3,0.264,755.0,01.17,0.508
2016-04-03 01:21:00,1808E-3,5C000400,-0724,0834,12122,023.2,045.3,0.264,755.0,01.17,0.508
2016-04-03 01:22:00,1787E-3,5C000400,-0724,0834,12023,023.2,045.3,0.264,755.0,01.17,0.508
2016-04-03 01:23:00,1834E-3,5C000400,-0724,0835,12145,023.2,045.3,0.264,755.0,01.17,0.508
2016-04-03 01:24:00,1707E-3,5C000400,-0724,0834,12113,023.2,045.3,0.263,755.0,01.17,0.508
2016-04-03 01:25:00,1892E-3,5C000400,-0724,0835,12080,023.2,045.3,0.264,755.0,01.17,0.508
2016-04-03 01:26:00,1717E-3,5C000400,-0724,0835,12259,023.2,045.3,0.264,755.0,01.17,0.508
2016-04-03 01:27:00,1804E-3,5C000400,-0724,0835,12255,023.2,045.3,0.264,755.0,01.17,0.508
2016-04-03 01:28:00,1662E-3,5C000400,-0724,0834,12242,023.2,045.3,0.263,754.9,01.17,0.508
2016-04-03 01:29:00,1839E-3,5C000400,-0724,0834,12286,023.2,045.3,0.264,754.9,01.17,0.508
2016-04-03 01:30:00,1847E-3,5C000400,-0724,0835,12279,023.3,045.3,0.264,754.9,01.17,0.508
2016-04-03 01:31:00,1841E-3,5C000400,-0724,0834,12142,023.3,045.3,0.264,754.9,01.17,0.508
2016-04-03 01:32:00,1675E-3,5C000400,-0724,0834,12105,023.3,045.3,0.263,754.9,01.17,0.508
2016-04-03 01:33:00,1701E-3,5C000400,-0724,0834,12111,023.3,045.3,0.263,754.9,01.17,0.508
2016-04-03 01:34:00,1699E-3,5C000400,-0724,0834,12222,023.3,045.3,0.264,754.9,01.17,0.508
2016-04-03 01:35:00,1691E-3,5C000400,-0724,0835,12120,023.3,045.3,0.264,754.9,01.17,0.508
2016-04-03 01:36:00,1771E-3,5C000400,-0724,0835,12108,023.3,045.3,0.264,754.9,01.17,0.508
2016-04-03 01:37:00,1798E-3,5C000400,-0724,0835,12153,023.3,045.3,0.264,754.9,01.17,0.508
2016-04-03 01:38:00,1821E-3,5C000400,-0724,0835,12056,023.3,045.3,0.263,754.9,01.17,0.508
2016-04-03 01:39:00,1845E-3,5C000400,-0724,0835,12212,023.3,045.3,0.263,754.9,01.17,0.508
2016-04-03 01:40:00,1730E-3,5C000400,-0724,0835,12157,023.3,045.3,0.263,754.9,01.17,0.508
2016-04-03 01:41:00,1669E-3,5C000400,-0724,0834,12123,023.3,045.3,0.263,754.9,01.17,0.508
2016-04-03 01:42:00,1764E-3,5C000400,-0724,0836,12075,023.3,045.3,0.263,754.9,01.17,0.508
2016-04-03 01:43:00,1657E-3,5C000400,-0724,0834,12090,023.3,045.3,0.263,754.9,01.17,0.508
2016-04-03 01:44:00,1713E-3,5C000400,-0724,0834,12116,023.3,045.3,0.264,754.9,01.17,0.508
2016-04-03 01:45:00,1803E-3,5C000400,-0724,0835,12006,023.4,045.3,0.264,754.9,01.17,0.508
2016-04-03 01:46:00,1728E-3,5C000400,-0724,0834,12158,023.4,045.3,0.263,754.9,01.17,0.508
2016-04-03 01:47:00,1712E-3,5C000400,-0724,0834,12094,023.4,045.3,0.263,754.8,01.17,0.508
2016-04-03 01:48:00,1716E-3,5C000400,-0724,0834,12023,023.4,045.3,0.263,754.9,01.17,0.508
2016-04-03 01:49:00,1887E-3,5C000400,-0724,0833,12147,023.4,045.3,0.263,754.8,01.17,0.508
2016-04-03 01:50:00,1834E-3,5C000400,-0724,0835,12225,023.4,045.3,0.263,754.8,01.17,0.508
2016-04-03 01:51:00,1989E-3,5C000400,-0724,0834,12145,023.4,045.3,0.263,754.8,01.17,0.508
2016-04-03 01:52:00,1892E-3,5C000400,-0724,0834,12112,023.4,045.3,0.263,754.8,01.17,0.508
2016-04-03 01:53:00,1793E-3,5C000400,-0724,0835,12174,023.4,045.3,0.263,754.8,01.17,0.508
2016-04-03 01:54:00,1748E-3,5C000400,-0724,0834,12192,023.5,045.3,0.263,754.8,01.17,0.508
2016-04-03 01:55:00,1823E-3,5C000400,-0724,0834,12318,023.4,045.3,0.263,754.8,01.17,0.508
2016-04-03 01:56:00,1825E-3,5C000400,-0724,0835,12104,023.4,045.3,0.263,754.9,01.17,0.508
2016-04-03 01:57:00,1603E-3,5C000400,-0724,0834,12109,023.4,045.3,0.263,754.8,01.17,0.508
2016-04-03 01:58:00,1714E-3,5C000400,-0724,0835,12139,023.5,045.3,0.263,754.8,01.17,0.508
2016-04-03 01:59:00,1747E-3,5C000400,-0724,0834,12285,023.5,045.3,0.263,754.8,01.17,0.508
2016-04-03 02:00:00,1865E-3,5C000400,-0724,0834,12143,023.5,045.3,0.263,754.8,01.17,0.508
2016-04-03 02:01:00,1652E-3,5C000400,-0724,0835,12190,023.5,045.3,0.263,754.8,01.17,0.508
2016-04-03 02:02:00,1827E-3,5C000400,-0724,0835,12150,023.5,045.3,0.263,754.8,01.17,0.508
2016-04-03 02:03:00,1827E-3,5C000400,-0724,0835,12148,023.5,045.3,0.263,754.8,01.17,0.508
2016-04-03 02:04:00,1754E-3,5C000400,-0724,0835,12089,023.5,045.3,0.263,754.8,01.17,0.508
2016-04-03 02:05:00,1869E-3,5C000400,-0724,0834,12195,023.5,045.3,0.263,754.8,01.17,0.508
2016-04-03 02:06:00,1889E-3,5C000400,-0724,0835,12204,023.5,045.3,0.263,754.8,01.17,0.508
2016-04-03 02:07:00,1687E-3,5C000400,-0724,0835,12135,023.6,045.3,0.263,754.8,01.17,0.508
2016-04-03 02:08:00,1732E-3,5C000400,-0724,0835,12125,023.6,045.3,0.263,754.8,01.17,0.508
2016-04-03 02:09:00,1741E-3,5C000400,-0724,0835,12213,023.6,045.3,0.263,754.8,01.17,0.508
2016-04-03 02:10:00,1701E-3,5C000400,-0724,0835,12161,023.6,045.3,0.263,754.7,01.17,0.508
2016-04-03 02:11:00,1772E-3,5C000400,-0724,0834,12208,023.6,045.3,0.263,754.7,01.17,0.508
2016-04-03 02:12:00,1782E-3,5C000400,-0724,0835,12194,023.6,045.3,0.263,754.7,01.17,0.508
2016-04-03 02:13:00,1822E-3,5C000400,-0724,0835,12024,023.6,045.3,0.263,754.7,01.17,0.508
2016-04-03 02:14:00,1776E-3,5C000400,-0724,0834,12157,023.6,045.3,0.263,754.7,01.17,0.508
2016-04-03 02:15:00,1671E-3,5C000400,-0724,0835,12136,023.6,045.3,0.263,754.7,01.17,0.508
2016-04-03 02:16:00,1675E-3,5C000400,-0724,0835,12170,023.6,045.3,0.263,754.7,01.17,0.508
2016-04-03 02:17:00,1735E-3,5C000400,-0724,0834,12221,023.6,045.3,0.263,754.7,01.17,0.508
2016-04-03 02:18:00,1773E-3,5C000400,-0724,0834,12163,023.7,045.3,0.263,754.6,01.17,0.508
2016-04-03 02:19:00,1843E-3,5C000400,-0724,0835,12068,023.7,045.3,0.263,754.7,01.17,0.508
2016-04-03 02:20:00,1762E-3,5C000400,-0724,0834,12183,023.7,045.3,0.262,754.7,01.17,0.508
2016-04-03 02:21:00,1774E-3,5C000400,-0724,0835,12217,023.7,045.3,0.263,754.7,01.17,0.508
2016-04-03 02:22:00,1733E-3,5C000400,-0724,0835,12228,023.7,045.3,0.263,754.7,01.17,0.508
2016-04-03 02:23:00,1802E-3,5C000400,-0724,0835,12102,023.7,045.3,0.263,754.7,01.17,0.508
2016-04-03 02:24:00,1798E-3,5C000400,-0724,0835,12106,023.7,045.3,0.263,754.7,01.17,0.508
2016-04-03 02:25:00,1854E-3,5C000400,-0724,0834,12182,023.7,045.3,0.263,754.6,01.17,0.508
2016-04-03 02:26:00,1858E-3,5C000400,-0724,0834,12118,023.8,045.3,0.263,754.6,01.17,0.508
2016-04-03 02:27:00,1813E-3,5C000400,-0724,0834,12086,023.8,045.3,0.263,754.6,01.17,0.508
2016-04-03 02:28:00,1741E-3,5C000400,-0724,0834,12101,023.7,045.3,0.263,754.6,01.17,0.508
2016-04-03 02:29:00,1692E-3,5C000400,-0724,0835,12208,023.7,045.3,0.263,754.6,01.17,0.508
2016-04-03 02:30:00,1819E-3,5C000400,-0724,0835,12213,023.8,045.3,0.262,754.6,01.17,0.508
2016-04-03 02:31:00,1760E-3,5C000400,-0724,0834,11855,023.8,045.3,0.263,754.6,01.17,0.508
2016-04-03 02:32:00,1803E-3,5C000400,-0724,0834,12152,023.8,045.3,0.263,754.6,01.17,0.508
2016-04-03 02:33:00,1840E-3,5C000400,-0724,0835,12096,023.8,045.3,0.263,754.6,01.17,0.508
2016-04-03 02:34:00,1857E-3,5C000400,-0724,0834,12208,023.8,045.3,0.263,754.6,01.17,0.508
2016-04-03 02:35:00,1871E-3,5C000400,-0724,0835,12299,023.8,045.3,0.262,754.6,01.17,0.508
2016-04-03 02:36:00,1855E-3,5C000400,-0724,0834,12293,023.8,045.3,0.262,754.6,01.17,0.508
2016-04-03 02:37:00,1678E-3,5C000400,-0724,0835,12139,023.9,045.3,0.263,754.6,01.17,0.508
2016-04-03 02:38:00,1733E-3,5C000400,-0724,0834,12185,023.9,045.3,0.263,754.6,01.17,0.508
2016-04-03 02:39:00,1845E-3,5C000400,-0724,0834,12181,023.8,045.3,0.263,754.6,01.17,0.508
2016-04-03 02:40:00,1814E-3,5C000400,-0724,0835,12089,023.9,045.3,0.262,754.6,01.17,0.508
2016-04-03 02:41:00,1689E-3,5C000400,-0724,0834,12133,023.9,045.3,0.262,754.6,01.17,0.508
2016-04-03 02:42:00,1703E-3,5C000400,-0724,0835,12192,023.9,045.3,0.263,754.6,01.17,0.508
2016-04-03 02:43:00,1711E-3,5C000400,-0724,0835,12238,023.9,045.3,0.263,754.5,01.17,0.508
2016-04-03 02:44:00,1925E-3,5C000400,-0724,0835,12075,023.9,045.3,0.262,754.6,01.17,0.508
2016-04-03 02:45:00,1819E-3,5C000400,-0724,0835,12219,023.9,045.3,0.262,754.6,01.17,0.508
2016-04-03 02:46:00,1725E-3,5C000400,-0724,0835,12125,023.9,045.3,0.263,754.5,01.17,0.508
2016-04-03 02:47:00,1703E-3,5C000400,-0724,0834,12217,023.9,045.3,0.263,754.5,01.17,0.508
2016-04-03 02:48:00,1782E-3,5C000400,-0724,0835,12274,024.0,045.3,0.262,754.5,01.17,0.508
2016-04-03 02:49:00,1981E-3,5C000400,-0724,0835,12187,024.0,045.3,0.262,754.5,01.17,0.508
2016-04-03 02:50:00,1809E-3,5C000400,-0724,0835,12259,024.0,045.3,0.263,754.5,01.17,0.508
2016-04-03 02:51:00,1854E-3,5C000400,-0724,0834,12038,024.0,045.3,0.262,754.5,01.17,0.508
2016-04-03 02:52:00,1785E-3,5C000400,-0724,0835,12206,024.0,045.3,0.262,754.5,01.17,0.508
2016-04-03 02:53:00,1794E-3,5C000400,-0724,0835,12059,024.0,045.3,0.263,754.5,01.17,0.508
2016-04-03 02:54:00,1735E-3,5C000400,-0724,0835,12244,024.0,045.3,0.262,754.5,01.17,0.508
2016-04-03 02:55:00,1814E-3,5C000400,-0724,0835,12146,024.0,045.3,0.262,754.5,01.17,0.508
2016-04-03 02:56:00,1754E-3,5C000400,-0724,0834,12240,024.0,045.3,0.262,754.4,01.17,0.508
2016-04-03 02:57:00,1768E-3,5C000400,-0724,0835,12183,024.0,045.3,0.262,754.4,01.17,0.508
2016-04-03 02:58:00,1895E-3,5C000400,-0724,0835,12148,024.1,045.3,0.262,754.4,01.17,0.508
2016-04-03 02:59:00,1766E-3,5C000400,-0724,0835,12089,024.1,045.3,0.262,754.4,01.17,0.508
2016-04-03 03:00:00,1781E-3,5C000400,-0724,0835,12159,024.1,045.3,0.262,754.4,01.17,0.508
2016-04-03 03:01:00,1732E-3,5C000400,-0724,0835,12207,024.1,045.3,0.262,754.4,01.17,0.508
2016-04-03 03:02:00,1846E-3,5C000400,-0724,0834,12111,024.1,045.3,0.262,754.4,01.17,0.508
2016-04-03 03:03:00,1839E-3,5C000400,-0724,0835,12086,024.1,045.3,0.262,754.4,01.17,0.508
2016-04-03 03:04:00,1705E-3,5C000400,-0724,0834,12062,024.1,045.3,0.262,754.4,01.17,0.508
2016-04-03 03:05:00,1712E-3,5C000400,-0724,0836,12132,024.1,045.3,0.262,754.4,01.17,0.508
2016-04-03 03:06:00,1770E-3,5C000400,-0724,0835,12133,024.1,045.3,0.262,754.4,01.17,0.508
2016-04-03 03:07:00,1779E-3,5C000400,-0724,0835,12192,024.1,045.3,0.262,754.3,01.17,0.508
2016-04-03 03:08:00,1802E-3,5C000400,-0724,0834,12048,024.1,045.3,0.262,754.4,01.17,0.508
2016-04-03 03:09:00,1727E-3,5C000400,-0724,0834,11972,024.1,045.3,0.262,754.3,01.17,0.508
2016-04-03 03:10:00,1718E-3,5C000400,-0724,0835,12211,024.2,045.3,0.262,754.4,01.17,0.508
2016-04-03 03:11:00,1893E-3,5C000400,-0724,0834,12192,024.2,045.3,0.262,754.3,01.17,0.508
2016-04-03 03:12:00,1725E-3,5C000400,-0724,0834,12191,024.1,045.3,0.262,754.3,01.17,0.508
2016-04-03 03:13:00,1751E-3,5C000400,-0724,0835,12198,024.2,045.3,0.262,754.3,01.17,0.508
2016-04-03 03:14:00,1740E-3,5C000400,-0724,0835,12250,024.2,045.3,0.262,754.3,01.17,0.508
2016-04-03 03:15:00,1683E-3,5C000400,-0724,0835,12151,024.2,045.3,0.262,754.3,01.17,0.508
2016-04-03 03:16:00,1838E-3,5C000400,-0724,0835,12211,024.2,045.3,0.262,754.2,01.17,0.508
2016-04-03 03:17:00,1773E-3,5C000400,-0724,0835,12169,024.2,045.3,0.262,754.2,01.17,0.508
2016-04-03 03:18:00,1967E-3,5C000400,-0724,0835,12235,024.2,045.3,0.262,754.2,01.17,0.508
2016-04-03 03:19:00,1738E-3,5C000400,-0724,0835,12220,024.2,045.3,0.262,754.3,01.17,0.508
2016-04-03 03:20:00,1809E-3,5C000400,-0724,0834,12252,024.2,045.3,0.261,754.3,01.17,0.508
2016-04-03 03:21:00,1744E-3,5C000400,-0724,0835,12114,024.3,045.3,0.262,754.3,01.17,0.508
2016-04-03 03:22:00,1792E-3,5C000400,-0724,0834,12090,024.3,045.3,0.262,754.2,01.17,0.508
2016-04-03 03:23:00,1803E-3,5C000400,-0724,0835,12132,024.3,045.3,0.262,754.2,01.17,0.508
2016-04-03 03:24:00,1772E-3,5C000400,-0724,0834,12087,024.2,045.3,0.261,754.2,01.17,0.508
2016-04-03 03:25:00,1878E-3,5C000400,-0724,0835,12176,024.3,045.3,0.262,754.2,01.17,0.508
2016-04-03 03:26:00,1877E-3,5C000400,-0724,0834,12162,024.3,045.3,0.262,754.2,01.17,0.508
2016-04-03 03:27:00,1799E-3,5C000400,-0724,0834,12156,024.3,045.3,0.262,754.2,01.17,0.508
2016-04-03 03:28:00,1856E-3,5C000400,-0724,0835,12257,024.3,045.3,0.261,754.2,01.17,0.508
2016-04-03 03:29:00,1929E-3,5C000400,-0724,0835,12124,024.3,045.3,0.262,754.2,01.17,0.508
2016-04-03 03:30:00,1721E-3,5C000400,-0724,0835,12192,024.3,045.3,0.262,754.2,01.17,0.508
2016-04-03 03:31:00,1759E-3,5C000400,-0724,0834,12094,024.4,045.3,0.261,754.2,01.17,0.508
2016-04-03 03:32:00,1775E-3,5C000400,-0724,0835,12240,024.3,045.3,0.262,754.2,01.17,0.508
2016-04-03 03:33:00,1806E-3,5C000400,-0724,0835,12158,024.4,045.3,0.262,754.2,01.17,0.508
2016-04-03 03:34:00,1869E-3,5C000400,-0724,0834,12254,024.4,045.3,0.261,754.2,01.17,0.508
2016-04-03 03:35:00,1738E-3,5C000400,-0724,0834,12229,024.3,045.3,0.262,754.2,01.17,0.508
2016-04-03 03:36:00,1714E-3,5C000400,-0724,0834,12148,024.4,045.3,0.262,754.2,01.17,0.508
2016-04-03 03:37:00,1769E-3,5C000400,-0724,0835,12212,024.4,045.3,0.261,754.2,01.17,0.508
2016-04-03 03:38:00,1901E-3,5C000400,-0724,0835,12208,024.4,045.3,0.262,754.2,01.17,0.508
2016-04-03 03:39:00,1750E-3,5C000400,-0724,0835,12090,024.4,045.3,0.261,754.2,01.17,0.508
2016-04-03 03:40:00,1706E-3,5C000400,-0724,0835,12099,024.4,045.3,0.261,754.1,01.17,0.508
2016-04-03 03:41:00,1864E-3,5C000400,-0724,0835,12099,024.4,045.3,0.262,754.0,01.17,0.508
2016-04-03 03:42:00,1804E-3,5C000400,-0724,0836,12368,024.4,045.3,0.261,754.2,01.17,0.508
2016-04-03 03:43:00,1791E-3,5C000400,-0724,0834,12103,024.4,045.3,0.262,754.2,01.17,0.508
2016-04-03 03:44:00,1674E-3,5C000400,-0724,0835,12200,024.5,045.3,0.262,754.2,01.17,0.508
2016-04-03 03:45:00,1773E-3,5C000400,-0724,0835,12244,024.5,045.3,0.261,754.2,01.17,0.508
2016-04-03 03:46:00,1735E-3,5C000400,-0724,0835,12110,024.4,045.3,0.262,754.1,01.17,0.508
2016-04-03 03:47:00,1778E-3,5C000400,-0724,0835,12193,024.5,045.3,0.261,754.1,01.17,0.508
2016-04-03 03:48:00,1753E-3,5C000400,-0724,0836,12075,024.5,045.3,0.262,754.1,01.17,0.508
2016-04-03 03:49:00,1806E-3,5C000400,-0724,0835,12107,024.5,045.3,0.261,754.1,01.17,0.508
2016-04-03 03:50:00,1884E-3,5C000400,-0724,0835,12153,024.5,045.3,0.261,754.1,01.17,0.508
2016-04-03 03:51:00,1718E-3,5C000400,-0724,0836,12158,024.5,045.3,0.262,754.1,01.17,0.508
2016-04-03 03:52:00,1827E-3,5C000400,-0724,0835,12250,024.5,045.3,0.261,754.1,01.17,0.508
2016-04-03 03:53:00,1713E-3,5C000400,-0724,0835,12136,024.6,045.3,0.261,754.1,01.17,0.508
2016-04-03 03:54:00,1686E-3,5C000400,-0724,0835,12338,024.5,045.3,0.262,754.1,01.17,0.508
2016-04-03 03:55:00,1837E-3,5C000400,-0724,0836,12122,024.5,045.3,0.261,754.1,01.17,0.508
2016-04-03 03:56:00,1754E-3,5C000400,-0724,0834,12017,024.6,045.3,0.261,754.1,01.17,0.508
2016-04-03 03:57:00,1731E-3,5C000400,-0724,0835,12119,024.5,045.3,0.261,754.1,01.17,0.508
2016-04-03 03:58:00,1818E-3,5C000400,-0724,0835,12144,024.6,045.3,0.261,754.0,01.17,0.508
2016-04-03 03:59:00,1764E-3,5C000400,-0724,0835,12244,024.6,045.3,0.261,754.0,01.17,0.508
2016-04-03 04:00:00,1868E-3,5C000400,-0724,0835,12315,024.6,045.3,0.262,754.0,01.17,0.508
2016-04-03 04:01:00,1732E-3,5C000400,-0724,0835,12152,024.6,045.3,0.261,754.0,01.17,0.508
2016-04-03 04:02:00,1704E-3,5C000400,-0724,0835,12189,024.6,045.3,0.261,754.0,01.17,0.508
2016-04-03 04:03:00,1698E-3,5C000400,-0724,0834,12168,024.6,045.3,0.261,754.0,01.17,0.508
2016-04-03 04:04:00,1694E-3,5C000400,-0724,0835,12278,024.6,045.3,0.261,754.0,01.17,0.508
2016-04-03 04:05:00,1884E-3,5C000400,-0724,0835,12228,024.6,045.3,0.261,754.0,01.17,0.508
2016-04-03 04:06:00,1728E-3,5C000400,-0724,0835,12117,024.7,045.3,0.261,754.0,01.17,0.508
2016-04-03 04:07:00,1787E-3,5C000400,-0724,0834,12140,024.7,045.3,0.261,754.0,01.17,0.508
2016-04-03 04:08:00,1842E-3,5C000400,-0724,0835,11973,024.7,045.3,0.261,754.0,01.17,0.508
2016-04-03 04:09:00,1904E-3,5C000400,-0724,0835,12136,024.7,045.3,0.261,754.0,01.17,0.508
2016-04-03 04:10:00,1910E-3,5C000400,-0724,0835,12175,024.7,045.3,0.261,754.0,01.17,0.508
2016-04-03 04:11:00,1742E-3,5C000400,-0724,0835,12198,024.7,045.3,0.261,754.0,01.17,0.508
2016-04-03 04:12:00,1701E-3,5C000400,-0724,0834,12106,024.7,045.3,0.261,754.0,01.17,0.508
2016-04-03 04:13:00,1747E-3,5C000400,-0724,0835,12243,024.7,045.3,0.261,753.9,01.17,0.508
2016-04-03 04:14:00,1617E-3,5C000400,-0724,0835,12240,024.7,045.3,0.261,753.9,01.17,0.508
2016-04-03 04:15:00,1726E-3,5C000400,-0724,0835,12252,024.7,045.3,0.261,753.9,01.17,0.508
2016-04-03 04:16:00,1908E-3,5C000400,-0724,0835,12341,024.7,045.3,0.262,753.9,01.17,0.508
2016-04-03 04:17:00,1886E-3,5C000400,-0724,0835,12124,024.7,045.3,0.261,753.9,01.17,0.508
2016-04-03 04:18:00,1653E-3,5C000400,-0724,0835,12106,024.7,045.3,0.261,753.9,01.17,0.508
2016-04-03 04:19:00,1881E-3,5C000400,-0724,0835,12213,024.7,045.3,0.261,753.9,01.17,0.508
2016-04-03 04:20:00,1864E-3,5C000400,-0724,0835,12022,024.8,045.3,0.261,753.9,01.17,0.508